Weather in Chineyevo

Russia / Kurgan Oblast     55°28′28″N   64°38′49″E
temp.,
°C
wind,
m/s
gust,
m/s
humid.,
%
clouds,
%
prec.,
mm/h
press.,
hPa
HPBL,
m
28 february, sun
sun2823:00−15se51295100 0.6 1018532
02:00−16se51095100 0.4 1016430
05:00−17ese5996100 0.8 1014366
08:00−18e5996100 0.1 1013319
11:00−15e5895100 0.2 1011312
14:00−12e5993100 0.1 1010422
17:00−13ene61093100 0.3 1008437
20:00−14ene51094100 0.2 1008386
1 march, mon
mon123:00−15ne5109497 0.3 1009343
02:00−17ne4895100 0.2 1010312
05:00−19nne379799 0.3 1012244
08:00−20n369799 0.1 1013253
11:00−17n349398 0.1 1015306
14:00−14n3390100 0.1 1016416
17:00−14nnw2391100 0.1 1017354
20:00−17nnw129699 0.1 101720
2 march, tue
tue223:00−17wnw119787 0.1 101820
02:00−19wsw129875 0.0 101720
05:00−19wsw229878 0.1 101621
08:00−18sw229777 0.1 101580
11:00−15sw249282 0.1 1015294
14:00−12ssw3489100 0.0 1013416
17:00−12s4693100 0.1 1012437
20:00−17s499895 0.0 1010169
3 march, wed
wed323:00−17s499893 0.1 1009209
02:00−16s51095100 0.0 1007278
05:00−16s5995100 0.1 1006313
08:00−13s51194100 0.4 1005518
11:00−9ssw61091100 0.6 1005638
14:00−7ssw61091100 0.2 1004684
17:00−4ssw61193100 0.4 1003763
20:00−4ssw51195100 0.4 1001561
4 march, thu
thu423:00−4ssw41096100 0.9 1001416
02:00−4ssw3896100 0.2 1000257
05:00−7sw3597100 0.3 1000107
08:00−10w2396100 0.0 100036
11:00−6wnw3495100 0.0 1000244
14:00−4wnw358995 0.0 1000424
17:00−4w469283 0.0 1001449
20:00−7w389497 0.1 1003176